Wind_Speed
87 85 87 90 81 85 83 81 83 78 77 75 72 72 73 68 68 64 56 48 44 48 47 43 42 38 33 28 23 21 25 22 21 20 22 27 31 35
90 90 90 98 94 90 90 92 92 87 82 79 81 77 79 69 68 67 65 50 47 45 50 45 47 40 35 32 28 25 26 25 25 26 27 28 29 31
93 96 95 102 103 99 99 95 90 89 87 83 87 88 83 82 75 66 66 54 51 48 51 51 50 46 42 36 31 31 30 27 24 25 26 31 31 31
98 98 102 106 111 108 101 96 96 96 92 88 92 96 91 86 83 74 66 55 56 51 52 54 53 49 44 44 43 36 33 32 33 28 30 35 33 33
96 98 102 105 115 116 109 99 102 97 101 99 101 103 99 88 86 81 71 63 60 61 58 58 55 57 53 50 48 41 35 36 36 35 34 37 33 34
87 94 100 108 110 117 114 108 103 101 103 101 101 103 101 95 91 86 79 67 65 62 62 65 61 60 59 53 48 43 42 42 41 43 42 32 33 33
76 83 94 103 106 110 110 110 103 96 104 103 97 96 94 92 90 85 83 76 70 63 64 63 62 60 60 57 59 52 49 44 42 38 37 34 32 33
69 71 80 96 105 105 109 111 111 104 100 99 97 93 88 89 89 83 81 77 74 70 67 66 65 62 64 60 54 52 51 48 45 49 50 47 41 41
62 67 73 88 99 105 107 110 110 109 105 99 94 95 90 89 87 83 83 82 80 76 69 67 68 65 65 65 63 60 48 53 52 54 52 54 55 48
63 62 66 77 93 98 104 103 103 102 105 99 95 95 91 90 88 82 84 86 80 78 76 72 68 65 66 67 68 63 55 54 58 57 61 61 61 57
63 51 54 65 79 89 96 97 93 93 100 102 99 98 96 90 88 86 83 80 85 87 79 75 71 69 66 68 71 68 63 63 61 59 61 66 59 60
56 53 54 49 65 75 86 93 97 92 97 99 99 98 98 97 90 89 86 88 83 77 81 79 76 74 73 72 72 73 74 68 67 67 65 66 70 69
60 58 58 56 57 61 71 84 92 93 92 93 96 99 97 95 94 93 89 83 77 78 78 75 78 78 77 78 73 73 76 73 72 72 75 73 74 73
63 65 70 74 71 77 77 76 80 81 83 85 88 89 91 98 92 92 91 85 87 83 83 78 79 80 78 79 81 82 84 84 83 82 83 81 78 77
73 73 78 80 82 81 81 82 83 87 84 88 92 92 92 86 85 87 85 83 84 84 84 82 83 84 81 80 82 86 87 84 88 90 90 88 84 80
78 80 86 88 82 84 87 84 85 87 94 91 86 85 88 89 88 85 81 83 81 77 82 84 84 84 84 85 87 84 88 89 90 88 90 88 86 87
84 87 87 92 91 90 89 92 93 93 94 90 91 93 86 80 84 82 81 82 81 80 81 84 86 86 87 86 90 92 93 90 90 88 86 85 88 91
83 90 93 97 94 94 95 94 92 90 81 78 79 85 87 86 86 88 80 84 85 86 87 89 89 92 92 94 93 94 95 96 97 97 100 100 100 100
80 87 96 96 97 97 95 92 93 87 82 78 74 77 77 75 76 81 79 85 88 86 87 90 92 92 94 96 98 101 101 100 100 101 105 107 105 102
79 85 91 94 97 97 98 96 92 84 82 79 76 80 79 80 81 80 80 79 84 86 87 91 88 86 88 94 99 99 101 101 105 106 106 103 106 103
72 80 86 93 92 96 96 94 93 89 89 85 83 81 76 83 80 79 80 81 81 81 82 84 85 83 83 84 88 91 92 93 94 100 100 103 107 109
69 71 75 82 86 89 88 88 89 86 84 82 78 77 77 80 80 78 79 80 80 81 83 83 85 86 85 84 80 81 85 88 89 90 92 96 96 98
65 69 70 71 74 78 82 82 82 81 80 79 78 77 79 80 80 85 85 87 88 88 86 86 87 83 83 85 81 76 77 77 80 84 86 88 91 91
Wind_Direction
241 233 231 228 234 230 231 232 233 237 241 241 242 246 255 257 259 261 264 267 264 246 244 244 247 247 250 258 264 275 267 277 283 288 288 284 283 281
238 234 231 229 232 230 229 235 232 236 237 238 241 245 249 251 260 260 260 263 262 251 242 240 243 244 247 255 257 270 270 266 276 285 289 288 289 284
235 232 228 227 231 226 227 229 234 235 234 235 239 242 247 249 256 257 256 255 257 253 244 239 242 241 246 253 253 263 268 270 273 288 298 290 290 291
236 231 228 225 226 230 228 232 230 231 231 234 238 242 244 246 251 254 254 256 256 248 243 240 241 242 247 257 254 259 261 267 284 277 291 308 290 287
233 231 228 227 225 228 229 226 228 231 233 235 238 241 244 245 248 249 252 255 252 248 246 242 244 245 253 256 257 249 257 266 274 274 288 297 290 284
231 228 226 225 226 226 229 228 229 230 232 234 238 241 245 247 248 248 248 247 248 246 247 249 250 253 251 254 252 252 253 271 273 272 277 285 287 282
227 226 223 222 224 223 225 226 227 228 230 232 236 241 244 245 246 245 245 245 243 247 249 250 253 255 255 255 252 256 253 259 268 278 277 281 277 280
227 225 223 222 222 221 222 224 226 228 231 232 235 238 239 240 243 242 244 240 243 244 248 250 252 253 254 254 253 260 261 265 255 269 275 282 276 277
223 222 221 220 220 221 222 225 227 227 230 234 234 238 239 241 241 244 243 242 239 245 246 250 250 253 252 254 258 261 257 257 266 274 265 275 279 285
216 220 220 220 218 220 221 224 227 227 228 230 235 238 240 242 244 244 245 242 243 241 247 249 252 253 252 252 256 255 250 249 253 258 261 274 273 280
216 216 215 217 220 223 223 224 229 231 230 230 234 238 239 243 243 244 245 244 245 244 245 247 249 250 251 252 253 255 257 263 256 252 262 271 271 272
213 203 198 207 219 222 225 226 228 230 230 232 234 237 241 242 243 245 245 244 245 241 245 245 249 249 248 250 254 258 258 261 257 255 259 263 273 273
202 196 198 204 210 225 224 227 230 230 232 235 237 240 242 245 246 245 245 245 245 246 247 247 244 246 250 248 254 257 258 259 259 261 262 267 271 268
197 198 201 201 205 218 223 225 231 233 233 235 237 239 241 245 246 247 247 248 247 246 248 246 244 244 249 249 253 253 255 257 261 261 261 265 265 262
206 201 201 205 210 217 221 227 230 231 236 238 241 242 242 244 246 249 249 250 249 249 247 247 248 248 248 253 254 252 255 256 256 260 262 265 262 264
209 211 212 210 215 220 223 228 233 237 236 237 239 243 245 245 246 247 249 249 249 243 247 249 246 248 248 251 251 252 254 256 258 259 260 262 261 262
215 217 216 215 220 223 226 227 232 238 241 242 242 241 243 244 246 245 245 246 245 244 243 245 246 247 247 247 249 251 254 256 253 255 254 255 257 260
223 220 218 219 222 226 230 233 236 241 245 245 246 247 246 242 243 240 240 243 245 246 245 244 245 246 246 248 248 249 251 253 253 252 254 255 258 262
230 226 224 225 227 229 231 234 237 241 242 244 246 250 250 251 245 245 244 244 241 243 245 246 247 249 248 248 248 247 246 249 252 252 252 255 258 261
231 230 229 230 232 233 233 236 239 243 242 245 245 246 251 252 248 247 245 244 244 244 245 245 248 251 252 252 251 249 250 251 250 249 251 253 255 256
237 235 234 234 236 236 238 240 241 243 245 246 245 245 247 246 245 248 249 250 249 248 248 247 249 252 255 255 255 252 253 251 253 251 253 253 253 257
242 241 239 239 239 238 240 243 244 244 245 244 242 245 247 244 246 248 249 247 248 248 248 248 249 250 252 253 255 254 252 252 253 253 253 252 252 255
246 246 245 244 242 242 243 244 244 245 246 244 244 244 246 241 245 245 243 245 245 245 248 246 250 253 254 255 256 252 251 251 252 252 253 254 252 252
Height
10460 10472 10482 10486 10491 10498 10507 10519 10523 10528 10534 10538 10542 10542 10543 10543 10545 10551 10556 10559 10561 10566 10570 10574 10576 10578 10579 10579 10580 10579 10579 10580 10580 10580 10580 10580 10580 10579
10429 10441 10452 10459 10463 10472 10483 10492 10499 10505 10517 10521 10521 10525 10528 10532 10531 10538 10544 10548 10551 10554 10559 10564 10566 10569 10570 10570 10571 10572 10573 10572 10573 10573 10573 10573 10572 10571
10393 10408 10423 10431 10440 10448 10461 10470 10479 10485 10498 10500 10502 10505 10512 10518 10521 10523 10531 10537 10541 10545 10548 10553 10555 10558 10560 10561 10562 10563 10564 10565 10565 10566 10566 10565 10564 10563
10354 10373 10390 10402 10412 10422 10433 10444 10454 10463 10474 10480 10482 10484 10489 10500 10505 10511 10519 10524 10530 10533 10536 10541 10544 10547 10550 10551 10552 10553 10554 10556 10556 10557 10556 10556 10555 10555
10322 10340 10360 10374 10385 10393 10407 10421 10431 10442 10452 10460 10461 10462 10471 10481 10490 10497 10503 10510 10516 10519 10524 10530 10533 10535 10538 10541 10541 10543 10545 10546 10547 10547 10547 10547 10546 10546
10292 10310 10326 10340 10355 10368 10384 10401 10408 10419 10428 10437 10443 10448 10457 10465 10475 10480 10487 10495 10501 10504 10508 10514 10519 10524 10526 10529 10530 10531 10532 10535 10537 10537 10538 10536 10536 10536
10269 10282 10298 10311 10326 10343 10360 10374 10384 10394 10403 10415 10423 10430 10435 10444 10452 10461 10471 10479 10486 10491 10494 10499 10504 10508 10512 10515 10518 10519 10520 10523 10525 10527 10527 10526 10525 10526
10255 10267 10279 10291 10306 10323 10335 10349 10362 10375 10385 10394 10403 10411 10415 10423 10431 10442 10454 10463 10470 10476 10478 10483 10487 10494 10498 10502 10503 10505 10508 10510 10513 10513 10514 10515 10514 10515
10241 10251 10263 10273 10287 10300 10315 10328 10341 10354 10366 10377 10384 10391 10399 10404 10413 10424 10434 10443 10453 10457 10462 10468 10473 10478 10483 10487 10489 10492 10495 10497 10499 10500 10501 10501 10502 10503
10224 10236 10248 10258 10271 10283 10299 10313 10323 10335 10348 10359 10364 10373 10380 10386 10397 10406 10416 10425 10434 10441 10447 10454 10458 10463 10466 10471 10475 10477 10480 10483 10486 10487 10485 10487 10488 10490
10213 10224 10235 10248 10260 10272 10285 10298 10311 10323 10330 10337 10344 10352 10362 10369 10379 10390 10396 10404 10416 10422 10428 10435 10440 10446 10449 10454 10458 10462 10465 10467 10469 10472 10473 10472 10474 10474
10206 10213 10220 10234 10246 10257 10270 10280 10290 10300 10308 10316 10324 10332 10340 10351 10362 10370 10378 10388 10395 10403 10408 10418 10420 10427 10433 10438 10442 10445 10448 10452 10454 10456 10458 10459 10457 10460
10193 10201 10211 10222 10231 10242 10250 10260 10269 10278 10289 10299 10308 10314 10323 10330 10341 10350 10358 10369 10377 10383 10386 10400 10404 10407 10414 10421 10423 10426 10428 10432 10437 10440 10441 10442 10441 10444
10184 10190 10199 10206 10216 10227 10235 10242 10249 10260 10269 10277 10286 10294 10304 10311 10319 10329 10340 10349 10358 10363 10369 10378 10386 10389 10394 10401 10405 10409 10412 10415 10417 10421 10424 10425 10425 10427
10171 10179 10188 10193 10200 10209 10218 10225 10232 10242 10252 10260 10268 10277 10286 10294 10299 10308 10318 10327 10335 10341 10348 10356 10363 10368 10375 10381 10385 10388 10390 10394 10400 10403 10405 10406 10407 10408
10162 10166 10173 10180 10188 10195 10203 10210 10217 10222 10232 10241 10250 10257 10266 10274 10281 10291 10296 10305 10314 10319 10324 10330 10338 10346 10351 10357 10363 10369 10370 10373 10378 10381 10383 10386 10388 10389
10146 10153 10159 10167 10174 10178 10185 10189 10196 10203 10212 10224 10231 10241 10248 10256 10263 10271 10276 10283 10291 10297 10302 10307 10313 10320 10328 10334 10341 10345 10347 10352 10355 10359 10362 10365 10368 10370
10131 10136 10142 10149 10155 10162 10169 10174 10182 10190 10197 10204 10209 10216 10227 10236 10243 10251 10255 10262 10269 10275 10280 10284 10289 10295 10302 10310 10316 10321 10325 10329 10333 10338 10343 10346 10346 10349
10111 10117 10123 10130 10137 10144 10149 10156 10164 10171 10178 10184 10190 10196 10203 10209 10216 10224 10232 10239 10246 10250 10255 10261 10265 10272 10278 10284 10288 10294 10298 10304 10310 10316 10319 10322 10324 10327
10092 10097 10104 10110 10117 10124 10130 10136 10143 10151 10158 10164 10171 10177 10183 10188 10194 10200 10207 10216 10222 10226 10232 10237 10241 10245 10250 10256 10258 10268 10274 10277 10283 10288 10293 10298 10298 10302
10072 10078 10083 10089 10096 10103 10109 10116 10123 10130 10137 10144 10152 10158 10163 10168 10172 10178 10183 10190 10198 10204 10209 10213 10216 10221 10225 10228 10232 10236 10241 10248 10253 10259 10262 10269 10276 10277
10049 10056 10062 10068 10074 10080 10087 10094 10100 10107 10114 10121 10128 10134 10140 10146 10151 10155 10161 10166 10173 10178 10184 10188 10192 10195 10201 10206 10208 10210 10214 10219 10224 10230 10235 10241 10249 10252
10030 10034 10038 10044 10051 10057 10064 10070 10076 10083 10089 10095 10102 10109 10115 10121 10128 10132 10136 10142 10146 10153 10159 10162 10167 10171 10176 10178 10183 10187 10191 10195 10198 10203 10208 10213 10219 10224